User: anonymous   Login
Location: Prairie Dale
(45.6972°N, 104.5033°W)
Time: 03:37:44
(UTC+00:00)
Language:

STARS - Orbit

View from above orbital plane
View from above orbital plane
View from above satellite
View from above satellite

Ground track
Ground track

The orbit data is extracted from the following two-line orbital elements,

1 33498U 09002G   22179.54080681  .00000779  00000-0  11020-3 0  9991
2 33498  98.1682  71.7307 0009776 210.0118 150.0534 14.80017573723073
Epoch (UTC): 28 June 2022 12:58:45
Eccentricity: 0.0009776
inclination: 98.1682°
perigee height: 622 km
apogee height: 636 km
right ascension of ascending node: 71.7307°
argument of perigee: 210.0118°
revolutions per day: 14.80017573
mean anomaly at epoch: 150.0534°
orbit number at epoch: 72307

The dashed part of the orbit path shows where the satellite is in the earth's shadow,  

DLR